Location: Betpouey
(42.8833°N, 0.0333°E)
Time: 22:30:51
(UTC+00:00)

CZ-2D R/B - Pass Details

Date: 01 December 2020
Orbit: 521 x 538 km, 97.4° (Epoch: 18 January)

Event Time Altitude Azimuth Distance (km) Brightness Sun altitude
Rises 17:49:30 0° 150° (SSE) 2,647 6.7 -14.8°
Reaches altitude 10° 17:51:40 10° 142° (SE) 1,766 5.7 -15.2°
Maximum altitude 17:55:15 40° 72° (ENE) 787 3.6 -15.8°
Drops below altitude 10° 17:58:52 10° 2° (N) 1,789 5.8 -16.4°
Sets 18:01:04 0° 356° (N) 2,688 6.7 -16.8°
